Regional Weather Roundup
Issued by NWS

Home | Current Version | Previous Version | Graphics & Text | Print | Product List | Glossary On
Versions: 1 2 3 4 5 6 7 8 9 10 11 12 13 14 15 16 17 18 19 20 21 22 23 24 25 26 27 28 29 30 31 32 33 34 35 36 37 38 39 40 41 42 43 44 45 46 47 48 49 50
000
ASUS43 KBIS 270810
RWRND

NORTH DAKOTA REGIONAL WEATHER ROUNDUP
NATIONAL WEATHER SERVICE BISMARCK ND
300 AM CDT FRI MAR 27 2015

NOTE: "FAIR" INDICATES FEW OR NO CLOUDS BELOW 12,000 FEET WITH NO
SIGNIFICANT WEATHER AND/OR OBSTRUCTIONS TO VISIBILITY.


NDZ001>003-009>011-017-270900-
NORTHWEST NORTH DAKOTA

CITY           SKY/WX    TMP DP  RH WIND       PRES   REMARKS
WILLISTON      CLOUDY    37  29  72 S6        30.07F
MINOT          CLOUDY    28  17  63 S12       30.13F WCI  18
MINOT AFB      CLOUDY    28  22  79 S13       30.13F WCI  17
$$

NDZ018>021-031>035-040>046-270900-
SOUTHWEST NORTH DAKOTA

CITY           SKY/WX    TMP DP  RH WIND       PRES   REMARKS
BISMARCK       MOCLDY    25  16  68 S9        30.22F WCI  15
DICKINSON      CLOUDY    33  27  78 S14       30.07F
GARRISON         N/A     28  18  66 S10       30.15F WCI  19
HETTINGER ARPT FLURRIES  32  28  85 S9        30.12F
$$

NDZ004>008-012>016-024-026-027-054-270900-
NORTHEAST NORTH DAKOTA

CITY           SKY/WX    TMP DP  RH WIND       PRES   REMARKS
GRAND FORKS    CLEAR     14  11  87 CALM      30.29F
GRND FRKS AFB  CLEAR     14  11  88 SW2       30.28F
DEVILS LAKE    CLEAR     19  14  79 S7        30.22F WCI  10
$$

NDZ022-023-025-028>030-036>039-047>053-270900-
SOUTHEAST NORTH DAKOTA

CITY           SKY/WX    TMP DP  RH WIND       PRES   REMARKS
FARGO          CLEAR     12   6  77 CALM      30.29F
JAMESTOWN      PTCLDY    15  11  83 S5        30.24F WCI   8
$$



USA.gov is the U.S. government's official web portal to all federal, state and local government web resources and services.